Hourly Data Report for October 15, 2015

All times are specified in Local Standard Time (LST). Add 1 hour to adjust for Daylight Saving Time where and when it is observed.

FREDERICTON
NEW BRUNSWICK

45°52'08.000" N
66°32'14.000" W
20.70 m
8101505
71700
YFC

Download Data

Hourly Data (October 2015)
Hourly Data Report for October 15, 2015
Temp Definition
°C
Dew Point Temp Definition
°C
Rel Hum Definition
%
Wind Dir Definition
10's deg

Wind Spd Definition
km/h
Visibility Definition
km
Stn Press Definition
kPa
Hmdx Definition


Wind Chill Definition


Weather Definition


TIME
00:00 Legend Double Dagger 6.6 2.7 76 25 9 16.1 100.27     LegendNANA
01:00 Legend Double Dagger 5.0 1.9 81 25 8 16.1 100.29     LegendNANA
02:00 Legend Double Dagger 4.7 1.6 80 26 9 16.1 100.35     LegendNANA
03:00 Legend Double Dagger 4.4 1.2 80 26 5 16.1 100.38     LegendNANA
04:00 Legend Double Dagger 3.4 0.9 84 24 11 16.1 100.45     LegendNANA
05:00 Legend Double Dagger 2.9 0.6 85 26 9 16.1 100.53     LegendNANA
06:00 Legend Double Dagger 2.4 0.1 85 24 8 16.1 100.60     LegendNANA
07:00 Legend Double Dagger 0.6 -0.4 93 23 9 16.1 100.65     LegendNANA
08:00 Legend Double Dagger 3.2 0.8 84 20 8 16.1 100.73     LegendNANA
09:00 Legend Double Dagger 6.1 -0.6 62 28 15 16.1 100.77     LegendNANA
10:00 Legend Double Dagger 7.7 -1.2 53 31 15 16.1 100.80     LegendNANA
11:00 Legend Double Dagger 8.7 -1.2 50 30 13 16.1 100.79     LegendNANA
12:00 Legend Double Dagger 9.6 -0.8 48 30 15 16.1 100.79     LegendNANA
13:00 Legend Double Dagger 11.2 0.3 47 28 13 16.1 100.73     LegendNANA
14:00 Legend Double Dagger 12.3 0.6 44 25 8 16.1 100.67     LegendNANA
15:00 Legend Double Dagger 12.7 0.2 42 25 13 16.1 100.68     LegendNANA
16:00 Legend Double Dagger 12.6 1.3 46 23 17 16.1 100.68     LegendNANA
17:00 Legend Double Dagger 11.6 2.2 52 24 9 16.1 100.72     LegendNANA
18:00 Legend Double Dagger 8.3 2.9 69 22 4 16.1 100.75     LegendNANA
19:00 Legend Double Dagger 5.4 2.6 82 21 8 16.1 100.81     LegendNANA
20:00 Legend Double Dagger 5.0 2.5 84 19 11 16.1 100.85     LegendNANA
21:00 Legend Double Dagger 4.4 2.4 87 20 9 16.1 100.86     LegendNANA
22:00 Legend Double Dagger 4.6 3.1 90 20 17 16.1 100.88     LegendNANA
23:00 Legend Double Dagger 4.7 3.1 89 19 15 16.1 100.90     LegendNANA

Notes on Data Quality.

Legend

  • E = Estimated
  • M = Missing
  • NA = Not Available
  • ‡ = Partner data that is not subject to review by the National Climate Archives
Date modified: